Regional Weather Roundup
Issued by NWS Northern Indiana

Home | Current Version | Previous Version | Graphics & Text | Print | Product List | Glossary On
Versions: 1 2 3 4 5 6 7 8 9 10 11 12 13 14 15 16 17 18 19 20 21 22 23 24 25 26 27 28 29 30 31 32 33 34 35 36 37 38 39 40 41 42 43 44 45 46 47 48 49 50
000
ASUS43 KIWX 211400
RWRIWX

KIWX WEATHER ROUNDUP
NATIONAL WEATHER SERVICE NORTHERN INDIANA
900 AM EST FRI NOV 21 2014

NOTE: "FAIR" INDICATES FEW OR NO CLOUDS BELOW 12,000 FEET WITH NO
SIGNIFICANT WEATHER AND/OR OBSTRUCTIONS TO VISIBILITY.

* THESE STATIONS ARE NOT UNDER NWS QUALITY CONTROL. THEY ALSO MAY NOT
  REPORT WEATHER SUCH AS PRECIPITATION OR FOG.

INZ001>027-211500-
NORTHERN INDIANA

CITY           SKY/WX    TMP DP  RH WIND       PRES   REMARKS
KNOX*          MOSUNNY   13   7  77 SW3       30.45R
SOUTH BEND     MOSUNNY   16   8  71 CALM      30.44R
ELKHART*       PTSUNNY   18  10  73 CALM      30.44R
GOSHEN         SUNNY     15   8  73 SW5       30.44R WCI   8
MONTICELLO*    MOSUNNY   13   8  80 CALM      30.47R
ANGOLA*        SUNNY     12  10  92 SW3       30.41R
FORT WAYNE     MOSUNNY   14   7  73 SW6       30.47R WCI   5
PERU/GRISSOM   MOSUNNY   13  10  86 S1        30.46R

$$
INZ028>050-211500-
CENTRAL INDIANA

CITY           SKY/WX    TMP DP  RH WIND       PRES   REMARKS
LAFAYETTE      MOSUNNY   13  10  88 CALM      30.48R
KOKOMO*        MOSUNNY   12   9  85 CALM      30.46R
MUNCIE*        MOSUNNY   16   7  67 CALM      30.46R
INDIANAPOLIS   SUNNY     17   9  70 CALM      30.47R

$$
MIZ043>046-050>051-056>058-064>065-071>073-077>080-211500-
SOUTHWEST LOWER MICHIGAN

CITY           SKY/WX    TMP DP  RH WIND       PRES   REMARKS
BATTLE CREEK   PTSUNNY   18  12  77 SE5       30.40S HAZE    WCI  11
BENTON HARBOR  PTSUNNY   23  15  71 S3        30.43R
COLDWATER*     MOSUNNY   16  14  93 CALM      30.41R
HILLSDALE*     CLOUDY    15  13  90 CALM      30.39R
HOLLAND        PTSUNNY   18  12  77 SE5       30.42R WCI  11
GRAND RAPIDS   PTSUNNY   12   8  84 S5        30.40R WCI   4
KALAMAZOO      MOSUNNY   15  12  88 S5        30.42R WCI   8
STURGIS*       SUNNY     16  12  86 SW3       30.42R
THREE RIVERS*  FAIR      16  14  90 S5        30.43R WCI   9

$$
OHZ001>008-015>018-024>025-211500-
NORTHWEST OHIO

CITY           SKY/WX    TMP DP  RH WIND       PRES   REMARKS
DEFIANCE       MOSUNNY   15   8  73 SW5       30.47R WCI   8
FINDLAY        MOSUNNY   15   7  70 SW3       30.46R
TOLEDO EXPRESS SUNNY     18  12  77 SW6       30.45R WCI  10
TOLEDO METCALF SUNNY     20  11  68 SW3       30.47R
LIMA           MOSUNNY   15   6  67 SW6       30.45R WCI   6

$$
AND FOR LAKE MICHIGAN COASTAL AND OPEN LAKE BUOY OBSERVATIONS

STATION/POSITION TEMP    WIND        PRES    VSBY  WAVE
                 AIR SEA DIR/SP/G                  HT/PER
                 (F)     (DEG/KT/KT) (MB)    (MI)  (FT/S)
CALUMET HARBOR    16     210/  4/  5 1029.7R
MICHIGAN CITY     18     150/  5/  7   N/A
SAINT JOSEPH      26     240/  3/  9 1030.1S
SOUTH LAKE BUOY   24 42  290/  4/  8 1030.6R         3/ 6

$$
&&



USA.gov is the U.S. government's official web portal to all federal, state and local government web resources and services.